SCP
0 0 0 0 0 0 -0 -0 -0 -0 -0 -0 -0 -0 -0 -0 -0 -0 -0 -0 0 0 0 -0 -0 0 -0 0 -0 -0 -0 0 0 0 -0 -0 0 0 -0 -0 -0 0 0 0 0
0 0 0 0 0 0 -0 -0 -0 -0 -0 -0 -0 -0 -0 -0 -0 -0 -0 -0 0 0 0 0 -0 0 -0 0 -0 -0 -0 0 0 0 0 -0 0 0 0 -0 -0 0 0 0 0
0 0 0 0 0 0 -0 -0 -0 -0 -0 -0 -0 -0 -0 -0 -0 -0 -0 -0 -0 0 -0 0 0 0 -0 0 -0 0 -0 -0 -0 -0 0 -0 0 0 0 0 0 0 0 0 0
0 0 0 0 0 0 -0 -0 -0 -0 -0 -0 -0 -0 -0 -0 0 -0 -0 -0 -0 -0 0 0 -0 0 0 0 -0 0 -0 -0 -0 0 0 0 0 0 0 -0 -0 0 0 0 0
0 0 0 0 0 -0 -0 -0 -0 -0 -0 -0 -0 -0 0 0 -0 -0 -0 -0 -0 0 0 0 0 0 0 -0 -0 -0 -0 0 -0 -0 0 -0 -0 0 0 0 0 0 0 0 0
0 0 0 0 0 0 -0 -0 -0 -0 -0 -0 -0 -0 0 0 -0 -0 -0 -0 -0 -0 0 -0 -0 -0 -0 0 -0 0 0 -0 0 -0 0 0 0 0 -0 0 -0 -1 -0 0 0
0 0 0 0 0 0 -0 -0 -0 -0 -0 -0 -0 -0 -0 -0 -0 -0 -0 -0 -0 -0 0 -0 0 0 0 -0 -0 -0 -0 0 -0 -0 -0 -0 -0 -0 0 -0 -1 -0 -0 -1 -0
0 0 0 0 0 -0 -0 -0 -0 -0 -0 -0 -0 -0 0 -0 0 -0 -0 -0 -0 -0 -0 -0 0 0 0 0 -0 0 -0 0 -0 -0 -0 -0 -0 -0 -0 -1 -0 -0 -0 0 0
0 0 0 0 -0 -0 -0 -0 -0 -0 -0 -0 -0 -0 0 -0 0 -0 -0 -0 -0 -0 -0 -0 0 0 0 0 -0 0 -0 0 0 0 -0 -0 0 0 0 -0 0 0 0 0 0
0 0 0 0 0 0 -0 0 0 0 0 0 -0 0 0 -0 -0 0 -0 -0 -0 -0 0 0 -0 -0 -0 0 0 0 -0 -0 0 0 -0 0 0 0 0 0 0 0 0 0 0
0 0 0 0 0 0 0 0 0 0 0 0 0 -0 -0 -0 -0 -0 -0 -0 -0 0 0 0 -0 -0 -0 -0 -0 0 -0 -0 -0 -0 0 0 0 0 0 0 0 0 -0 -0 0
0 0 0 -0 -0 0 0 0 0 0 0 0 -0 -0 -0 -0 -0 -0 -0 -0 0 0 0 0 0 -0 -0 0 0 0 -0 -0 -0 -0 0 0 -0 0 0 -0 0 0 -0 0 -0
0 0 0 -0 -0 0 0 0 0 -0 0 -0 0 -0 -0 0 -0 0 0 0 -0 -0 -0 -0 -0 -0 -0 -0 -0 -0 0 0 0 0 0 0 0 -0 0 0 0 -0 0 0 0
0 0 0 -0 0 0 0 0 0 0 0 0 0 -0 0 -0 0 -0 0 -0 0 -0 -0 -0 0 -0 -0 0 0 -0 -0 -0 0 0 0 0 0 0 0 0 0 0 -0 0 0
0 0 0 0 0 0 0 0 0 0 0 0 -0 -0 0 0 -0 0 0 0 0 -0 0 0 0 0 -0 0 -0 -0 0 -0 0 0 0 0 0 0 0 0 0 0 0 0 0
0 0 0 0 0 0 0 0 0 0 0 0 0 -0 0 -0 -0 -0 -0 0 0 -0 -0 -0 -0 -0 0 -0 0 0 -0 0 0 0 0 0 0 0 0 0 0 0 0 0 0
0 0 0 0 0 0 0 0 0 0 -0 0 0 -0 -0 -0 0 -0 -0 0 0 -0 0 0 -0 -0 -0 0 0 -0 -0 -0 0 -0 0 0 0 0 -0 0 0 0 0 0 0
0 0 0 0 0 0 0 0 0 0 0 -0 -0 -0 -0 0 -0 0 0 0 0 -0 0 -0 -0 0 0 0 0 0 0 0 0 0 0 0 0 0 0 0 -0 0 0 0 0
0 0 0 0 0 0 0 0 0 0 0 0 -0 -0 -0 -0 0 0 0 0 0 -0 0 -0 0 -0 -0 0 0 0 0 0 0 0 0 0 0 0 0 0 0 0 0 0 0
0 0 0 0 0 0 0 0 0 0 0 0 0 0 -0 0 0 0 0 0 0 -0 0 0 0 0 0 0 0 0 -0 0 0 0 0 0 0 0 0 0 0 0 0 0 0
0 0 0 0 0 0 0 0 0 0 0 0 0 0 0 -0 0 0 0 0 0 0 -0 0 0 0 0 0 0 0 0 0 0 0 0 0 0 0 0 0 0 0 0 0 0
0 0 0 0 0 0 0 0 0 0 0 0 0 0 0 0 0 0 0 0 0 0 0 0 0 0 0 0 0 0 0 0 0 0 0 0 0 0 0 0 0 0 0 0 0
0 0 0 0 0 0 0 0 0 0 0 0 0 0 0 0 0 0 0 0 0 0 0 0 0 0 0 0 0 0 0 0 0 0 0 0 0 0 0 0 0 0 0 0 0
0 0 0 0 0 0 0 0 0 0 0 0 0 0 0 0 0 0 0 0 -0 0 0 0 0 0 0 0 0 0 0 0 0 0 0 0 0 0 0 0 0 0 0 0 0
0 0 0 0 0 0 0 0 0 0 0 0 0 0 0 0 0 0 0 0 0 0 0 0 0 0 0 0 0 0 0 0 0 0 0 0 0 0 0 0 0 0 0 0 0
0 0 0 0 0 0 0 0 0 0 0 0 0 0 0 0 0 0 0 0 0 0 0 0 0 0 0 0 0 0 0 0 0 0 0 0 0 0 0 0 0 0 0 0 0
0 0 0 0 0 0 0 0 0 0 0 0 0 0 0 0 0 -0 0 0 0 0 -0 0 0 0 0 0 0 0 0 0 0 0 0 0 0 0 0 0 0 0 0 0 0
Wind_Speed_500mb
26 29 31 33 33 34 36 36 37 36 34 32 32 32 31 26 19 11 7 9 15 12 1 7 6 10 22 20 12 5 7 8 13 6 16 25 12 25 22 32 18 27 19 30 56
27 30 33 33 33 34 36 36 37 35 31 31 31 29 29 23 13 13 10 13 12 5 5 6 9 22 20 15 7 7 5 14 14 8 11 20 20 17 19 12 7 15 17 52 63
30 30 34 34 34 35 37 35 37 33 30 31 29 27 24 18 12 7 10 10 5 3 8 10 23 28 8 10 27 8 14 13 23 40 17 10 27 26 13 11 5 34 49 67 69
31 32 35 36 35 35 37 35 36 31 29 29 26 23 18 10 2 9 11 12 6 10 4 10 16 25 8 7 18 9 23 18 21 12 13 9 15 25 11 15 32 15 48 83 80
32 33 36 37 36 36 37 35 32 29 27 25 22 18 13 8 5 9 7 9 12 3 12 22 32 13 5 11 23 8 9 29 33 36 33 25 16 8 31 30 38 26 54 87 86
33 34 37 36 37 37 35 34 29 29 23 19 18 14 7 5 4 14 2 10 6 15 24 31 22 31 13 14 1 13 21 32 35 43 35 9 12 6 33 50 71 94 66 26 67
36 37 38 38 38 36 35 32 28 26 19 12 15 11 7 8 4 6 7 8 7 13 25 21 26 30 31 20 26 33 14 19 31 25 13 6 40 41 55 65 68 86 89 100 53
35 36 36 37 36 35 33 32 26 19 12 7 10 8 9 5 6 10 9 13 12 10 15 19 22 35 14 18 17 10 6 4 17 11 21 41 20 47 54 85 60 58 67 78 73
38 39 39 37 34 34 31 33 12 12 5 3 1 6 8 4 12 5 14 22 27 23 19 18 19 11 12 6 12 10 8 8 17 26 10 18 3 19 41 78 65 69 54 45 51
38 39 38 35 31 29 32 20 10 6 6 2 6 9 3 1 7 6 11 13 16 14 21 15 6 5 8 10 6 13 11 9 8 11 28 25 13 9 35 62 55 69 69 51 76
38 40 37 32 21 27 40 9 17 2 20 9 13 21 21 7 8 3 9 8 15 20 4 8 7 10 23 15 14 8 6 7 9 20 21 11 14 15 27 43 54 60 68 36 58
37 39 36 28 10 15 28 35 27 22 22 14 24 35 25 19 9 7 6 8 3 9 2 10 10 25 19 7 11 17 5 12 6 21 25 13 10 15 23 12 41 37 50 29 39
38 39 37 25 3 8 18 26 22 30 7 19 18 21 18 16 8 16 12 7 10 11 10 13 13 17 5 13 11 4 6 6 1 16 19 19 15 18 11 35 54 22 18 38 61
37 37 35 20 2 4 5 14 12 19 7 9 7 10 19 9 7 5 10 7 8 8 8 5 7 3 13 5 4 5 6 5 9 8 7 3 2 10 16 14 10 30 18 56 56
35 35 28 28 22 13 17 27 4 3 6 9 7 17 19 11 2 9 11 5 8 15 5 10 0 9 10 7 7 14 8 11 5 9 9 16 11 8 8 15 26 11 37 54 51
34 34 30 25 21 9 21 13 4 7 4 5 13 10 7 18 7 11 5 6 15 8 4 10 9 4 7 8 9 12 8 15 11 7 9 11 12 11 7 7 20 25 34 49 52
34 31 33 26 17 19 26 11 8 4 0 10 9 11 9 8 7 8 4 4 6 7 10 14 5 5 2 11 14 19 14 8 11 11 6 7 17 9 13 11 16 18 35 46 51
34 32 25 20 5 9 9 7 2 7 12 7 9 12 11 9 9 3 7 5 7 8 5 8 11 3 3 7 6 6 12 9 2 4 6 12 9 5 9 21 2 39 48 44 41
35 29 20 3 2 4 6 5 8 7 8 5 9 8 8 10 10 11 7 6 9 8 8 11 10 12 13 1 10 10 11 2 11 5 9 2 6 4 8 14 22 27 40 38 41
32 24 6 11 3 3 8 10 8 8 10 10 10 2 11 10 7 9 7 10 8 18 9 9 6 8 14 18 17 14 4 13 9 5 4 5 4 7 7 5 9 17 26 31 35
22 10 7 5 4 2 5 11 11 12 16 8 7 7 4 9 10 9 8 9 13 11 26 6 7 13 9 12 5 11 10 13 10 7 7 0 7 4 6 2 11 15 28 34 37
12 4 8 12 4 5 4 9 16 7 10 6 6 6 8 11 12 10 9 7 9 9 6 6 8 3 3 6 6 8 6 10 9 9 2 9 5 8 6 28 29 40 53 54 46
8 9 9 19 4 5 13 13 12 11 9 7 6 8 9 7 12 14 9 7 24 10 5 8 7 7 15 14 14 10 8 6 7 6 4 9 5 14 12 28 41 47 41 39 41
7 4 8 16 8 3 6 10 6 9 8 5 6 12 12 12 11 9 10 4 24 16 13 9 7 10 8 10 9 14 19 10 8 8 3 6 9 16 18 16 34 40 38 41 42
8 8 2 5 9 12 3 7 9 5 9 14 11 11 1 11 11 10 11 8 16 14 11 9 6 8 5 10 10 14 16 19 22 5 11 9 19 5 8 14 29 33 36 36 36
7 4 13 11 17 13 11 6 6 9 3 6 15 17 22 10 11 8 11 6 5 19 9 11 4 11 8 7 21 18 19 23 20 22 23 18 15 11 17 24 35 36 35 32 35
10 18 10 10 11 6 8 7 6 14 18 15 34 15 25 14 34 37 33 23 13 11 3 6 5 6 8 13 6 15 16 22 21 23 6 10 6 12 16 20 29 36 36 37 34
Wind_Direction_500mb
326 329 326 323 329 330 330 332 331 331 332 331 326 325 321 326 321 295 303 334 337 345 185 178 262 300 292 276 267 286 59 300 255 280 275 317 346 13 83 126 139 195 199 161 151
328 328 322 323 329 330 329 332 331 329 334 329 324 327 322 340 323 287 296 324 333 342 168 292 310 320 305 268 285 107 113 235 205 244 242 321 323 348 3 86 148 177 148 157 161
326 327 325 324 330 330 328 332 328 331 333 329 325 328 326 347 334 16 359 13 22 155 189 282 312 324 274 279 256 216 219 233 274 272 255 314 324 348 360 352 90 161 157 165 175
325 328 328 325 330 329 328 331 325 334 329 329 325 328 334 359 138 352 15 28 98 175 240 317 324 331 290 285 280 214 254 223 296 286 316 299 307 326 304 301 337 313 177 172 180
327 332 329 325 330 327 328 323 326 330 327 324 325 334 353 343 348 20 1 69 103 35 330 326 311 292 253 290 331 191 301 305 294 311 315 300 290 295 305 326 339 2 182 180 186
328 334 329 329 329 328 326 321 326 325 319 321 321 334 345 312 49 25 135 107 14 329 333 331 330 326 295 317 317 312 313 292 301 301 301 237 288 283 294 60 72 76 82 169 201
327 335 331 327 330 330 324 323 327 316 305 314 317 344 278 273 38 9 52 83 33 333 320 329 331 341 330 326 334 324 342 326 295 286 280 341 27 19 73 79 62 76 76 77 99
333 337 326 330 339 332 329 327 319 300 292 302 317 358 271 214 251 260 291 301 305 280 298 311 319 311 292 303 321 312 29 345 281 327 28 90 26 26 46 62 36 41 59 77 80
335 337 332 340 347 337 342 323 331 307 300 298 270 346 283 256 250 236 260 283 309 258 265 297 293 303 316 66 349 355 254 259 323 1 81 77 42 1 52 54 37 22 16 19 30
337 336 335 344 349 351 349 341 1 349 331 92 228 320 307 58 180 271 264 277 288 277 291 253 258 16 10 62 277 287 3 349 96 13 70 86 75 323 40 55 40 17 15 42 56
339 337 338 345 5 10 20 61 13 283 321 247 261 280 283 359 288 248 236 288 257 287 246 311 56 254 264 213 217 271 342 81 105 152 67 56 49 326 18 48 46 15 360 354 51
340 337 338 344 28 25 46 46 21 342 308 270 254 263 279 274 299 254 214 245 272 250 27 19 224 244 242 314 327 331 81 333 90 120 95 84 23 341 25 42 67 353 336 9 57
336 337 336 347 18 10 70 29 15 333 271 290 228 240 233 232 247 268 225 278 257 282 291 180 227 228 317 1 47 26 62 356 306 72 83 98 12 355 346 54 92 227 250 74 69
333 334 339 357 336 96 25 326 339 348 37 273 206 248 213 212 272 193 208 308 326 280 291 214 292 53 31 14 116 11 270 329 319 67 160 95 165 323 341 358 58 102 129 88 75
327 330 339 332 324 301 309 313 322 359 74 167 177 156 171 175 148 212 254 269 258 265 355 259 347 47 36 273 345 245 322 312 304 115 105 7 83 315 3 5 21 18 82 83 73
321 323 325 320 320 324 311 326 308 45 172 205 153 171 130 230 251 183 192 244 288 300 307 241 281 122 213 306 320 274 348 30 40 63 56 254 121 334 331 88 86 272 93 88 82
314 314 313 315 323 308 312 313 46 137 115 162 170 165 188 234 209 164 106 52 338 35 351 328 234 284 45 26 359 52 53 360 8 12 179 260 57 219 286 111 178 146 113 103 91
311 307 307 308 330 323 335 51 136 265 262 220 142 160 192 206 225 191 72 60 334 81 93 5 35 166 359 136 203 25 112 139 251 269 283 359 139 217 215 352 281 114 114 98 96
312 311 318 176 130 36 48 81 227 290 303 354 124 151 235 208 119 104 98 52 40 26 87 23 335 332 341 288 91 313 35 250 107 13 74 324 30 71 254 290 52 82 103 115 106
320 329 37 172 67 80 67 242 258 313 359 29 55 358 171 186 117 97 65 336 19 31 95 333 7 17 312 46 20 85 274 27 15 65 24 338 162 242 177 265 41 58 81 108 114
320 336 139 68 43 199 185 245 280 347 32 53 23 330 309 206 93 77 37 356 15 1 63 32 73 304 32 15 311 6 35 56 108 119 151 177 317 284 189 243 85 64 48 74 85
303 336 167 230 298 248 221 225 314 302 15 337 52 21 12 76 58 87 82 55 31 349 53 15 133 308 240 245 89 114 117 109 110 283 158 127 297 317 56 41 53 55 67 75 70
292 281 189 208 203 295 290 283 268 4 357 342 13 60 33 115 90 117 96 40 56 57 61 349 14 18 353 349 9 32 341 119 111 81 204 112 213 21 79 52 67 75 69 56 42
280 325 205 212 235 215 309 289 309 356 351 54 33 67 56 45 72 140 126 96 78 78 59 77 75 134 169 238 249 325 325 12 107 95 110 45 101 5 11 42 58 61 49 37 25
242 256 262 245 261 214 354 279 309 330 353 33 11 48 70 56 54 52 62 103 47 34 40 84 54 14 254 277 352 17 72 67 63 42 89 118 93 24 5 81 62 50 33 22 15
211 304 337 299 294 172 178 273 328 291 66 359 68 56 79 82 111 82 110 72 105 29 49 8 347 29 316 30 61 45 31 58 48 75 100 107 63 1 79 81 52 35 22 16 8
213 287 261 299 328 105 220 225 274 353 24 43 121 85 90 136 109 105 102 97 112 124 86 74 77 44 296 337 29 37 350 85 71 40 93 68 8 11 38 71 52 24 9 355 347
Wind_Speed_850mb
26 29 31 33 33 34 36 36 37 36 34 32 32 32 31 26 19 11 7 9 15 12 1 7 6 10 22 20 12 5 7 8 13 6 16 25 12 25 22 32 18 27 19 30 56
27 30 33 33 33 34 36 36 37 35 31 31 31 29 29 23 13 13 10 13 12 5 5 6 9 22 20 15 7 7 5 14 14 8 11 20 20 17 19 12 7 15 17 52 63
30 30 34 34 34 35 37 35 37 33 30 31 29 27 24 18 12 7 10 10 5 3 8 10 23 28 8 10 27 8 14 13 23 40 17 10 27 26 13 11 5 34 49 67 69
31 32 35 36 35 35 37 35 36 31 29 29 26 23 18 10 2 9 11 12 6 10 4 10 16 25 8 7 18 9 23 18 21 12 13 9 15 25 11 15 32 15 48 83 80
32 33 36 37 36 36 37 35 32 29 27 25 22 18 13 8 5 9 7 9 12 3 12 22 32 13 5 11 23 8 9 29 33 36 33 25 16 8 31 30 38 26 54 87 86
33 34 37 36 37 37 35 34 29 29 23 19 18 14 7 5 4 14 2 10 6 15 24 31 22 31 13 14 1 13 21 32 35 43 35 9 12 6 33 50 71 94 66 26 67
36 37 38 38 38 36 35 32 28 26 19 12 15 11 7 8 4 6 7 8 7 13 25 21 26 30 31 20 26 33 14 19 31 25 13 6 40 41 55 65 68 86 89 100 53
35 36 36 37 36 35 33 32 26 19 12 7 10 8 9 5 6 10 9 13 12 10 15 19 22 35 14 18 17 10 6 4 17 11 21 41 20 47 54 85 60 58 67 78 73
38 39 39 37 34 34 31 33 12 12 5 3 1 6 8 4 12 5 14 22 27 23 19 18 19 11 12 6 12 10 8 8 17 26 10 18 3 19 41 78 65 69 54 45 51
38 39 38 35 31 29 32 20 10 6 6 2 6 9 3 1 7 6 11 13 16 14 21 15 6 5 8 10 6 13 11 9 8 11 28 25 13 9 35 62 55 69 69 51 76
38 40 37 32 21 27 40 9 17 2 20 9 13 21 21 7 8 3 9 8 15 20 4 8 7 10 23 15 14 8 6 7 9 20 21 11 14 15 27 43 54 60 68 36 58
37 39 36 28 10 15 28 35 27 22 22 14 24 35 25 19 9 7 6 8 3 9 2 10 10 25 19 7 11 17 5 12 6 21 25 13 10 15 23 12 41 37 50 29 39
38 39 37 25 3 8 18 26 22 30 7 19 18 21 18 16 8 16 12 7 10 11 10 13 13 17 5 13 11 4 6 6 1 16 19 19 15 18 11 35 54 22 18 38 61
37 37 35 20 2 4 5 14 12 19 7 9 7 10 19 9 7 5 10 7 8 8 8 5 7 3 13 5 4 5 6 5 9 8 7 3 2 10 16 14 10 30 18 56 56
35 35 28 28 22 13 17 27 4 3 6 9 7 17 19 11 2 9 11 5 8 15 5 10 0 9 10 7 7 14 8 11 5 9 9 16 11 8 8 15 26 11 37 54 51
34 34 30 25 21 9 21 13 4 7 4 5 13 10 7 18 7 11 5 6 15 8 4 10 9 4 7 8 9 12 8 15 11 7 9 11 12 11 7 7 20 25 34 49 52
34 31 33 26 17 19 26 11 8 4 0 10 9 11 9 8 7 8 4 4 6 7 10 14 5 5 2 11 14 19 14 8 11 11 6 7 17 9 13 11 16 18 35 46 51
34 32 25 20 5 9 9 7 2 7 12 7 9 12 11 9 9 3 7 5 7 8 5 8 11 3 3 7 6 6 12 9 2 4 6 12 9 5 9 21 2 39 48 44 41
35 29 20 3 2 4 6 5 8 7 8 5 9 8 8 10 10 11 7 6 9 8 8 11 10 12 13 1 10 10 11 2 11 5 9 2 6 4 8 14 22 27 40 38 41
32 24 6 11 3 3 8 10 8 8 10 10 10 2 11 10 7 9 7 10 8 18 9 9 6 8 14 18 17 14 4 13 9 5 4 5 4 7 7 5 9 17 26 31 35
22 10 7 5 4 2 5 11 11 12 16 8 7 7 4 9 10 9 8 9 13 11 26 6 7 13 9 12 5 11 10 13 10 7 7 0 7 4 6 2 11 15 28 34 37
12 4 8 12 4 5 4 9 16 7 10 6 6 6 8 11 12 10 9 7 9 9 6 6 8 3 3 6 6 8 6 10 9 9 2 9 5 8 6 28 29 40 53 54 46
8 9 9 19 4 5 13 13 12 11 9 7 6 8 9 7 12 14 9 7 24 10 5 8 7 7 15 14 14 10 8 6 7 6 4 9 5 14 12 28 41 47 41 39 41
7 4 8 16 8 3 6 10 6 9 8 5 6 12 12 12 11 9 10 4 24 16 13 9 7 10 8 10 9 14 19 10 8 8 3 6 9 16 18 16 34 40 38 41 42
8 8 2 5 9 12 3 7 9 5 9 14 11 11 1 11 11 10 11 8 16 14 11 9 6 8 5 10 10 14 16 19 22 5 11 9 19 5 8 14 29 33 36 36 36
7 4 13 11 17 13 11 6 6 9 3 6 15 17 22 10 11 8 11 6 5 19 9 11 4 11 8 7 21 18 19 23 20 22 23 18 15 11 17 24 35 36 35 32 35
10 18 10 10 11 6 8 7 6 14 18 15 34 15 25 14 34 37 33 23 13 11 3 6 5 6 8 13 6 15 16 22 21 23 6 10 6 12 16 20 29 36 36 37 34
Wind_Direction_850mb
326 329 326 323 329 330 330 332 331 331 332 331 326 325 321 326 321 295 303 334 337 345 185 178 262 300 292 276 267 286 59 300 255 280 275 317 346 13 83 126 139 195 199 161 151
328 328 322 323 329 330 329 332 331 329 334 329 324 327 322 340 323 287 296 324 333 342 168 292 310 320 305 268 285 107 113 235 205 244 242 321 323 348 3 86 148 177 148 157 161
326 327 325 324 330 330 328 332 328 331 333 329 325 328 326 347 334 16 359 13 22 155 189 282 312 324 274 279 256 216 219 233 274 272 255 314 324 348 360 352 90 161 157 165 175
325 328 328 325 330 329 328 331 325 334 329 329 325 328 334 359 138 352 15 28 98 175 240 317 324 331 290 285 280 214 254 223 296 286 316 299 307 326 304 301 337 313 177 172 180
327 332 329 325 330 327 328 323 326 330 327 324 325 334 353 343 348 20 1 69 103 35 330 326 311 292 253 290 331 191 301 305 294 311 315 300 290 295 305 326 339 2 182 180 186
328 334 329 329 329 328 326 321 326 325 319 321 321 334 345 312 49 25 135 107 14 329 333 331 330 326 295 317 317 312 313 292 301 301 301 237 288 283 294 60 72 76 82 169 201
327 335 331 327 330 330 324 323 327 316 305 314 317 344 278 273 38 9 52 83 33 333 320 329 331 341 330 326 334 324 342 326 295 286 280 341 27 19 73 79 62 76 76 77 99
333 337 326 330 339 332 329 327 319 300 292 302 317 358 271 214 251 260 291 301 305 280 298 311 319 311 292 303 321 312 29 345 281 327 28 90 26 26 46 62 36 41 59 77 80
335 337 332 340 347 337 342 323 331 307 300 298 270 346 283 256 250 236 260 283 309 258 265 297 293 303 316 66 349 355 254 259 323 1 81 77 42 1 52 54 37 22 16 19 30
337 336 335 344 349 351 349 341 1 349 331 92 228 320 307 58 180 271 264 277 288 277 291 253 258 16 10 62 277 287 3 349 96 13 70 86 75 323 40 55 40 17 15 42 56
339 337 338 345 5 10 20 61 13 283 321 247 261 280 283 359 288 248 236 288 257 287 246 311 56 254 264 213 217 271 342 81 105 152 67 56 49 326 18 48 46 15 360 354 51
340 337 338 344 28 25 46 46 21 342 308 270 254 263 279 274 299 254 214 245 272 250 27 19 224 244 242 314 327 331 81 333 90 120 95 84 23 341 25 42 67 353 336 9 57
336 337 336 347 18 10 70 29 15 333 271 290 228 240 233 232 247 268 225 278 257 282 291 180 227 228 317 1 47 26 62 356 306 72 83 98 12 355 346 54 92 227 250 74 69
333 334 339 357 336 96 25 326 339 348 37 273 206 248 213 212 272 193 208 308 326 280 291 214 292 53 31 14 116 11 270 329 319 67 160 95 165 323 341 358 58 102 129 88 75
327 330 339 332 324 301 309 313 322 359 74 167 177 156 171 175 148 212 254 269 258 265 355 259 347 47 36 273 345 245 322 312 304 115 105 7 83 315 3 5 21 18 82 83 73
321 323 325 320 320 324 311 326 308 45 172 205 153 171 130 230 251 183 192 244 288 300 307 241 281 122 213 306 320 274 348 30 40 63 56 254 121 334 331 88 86 272 93 88 82
314 314 313 315 323 308 312 313 46 137 115 162 170 165 188 234 209 164 106 52 338 35 351 328 234 284 45 26 359 52 53 360 8 12 179 260 57 219 286 111 178 146 113 103 91
311 307 307 308 330 323 335 51 136 265 262 220 142 160 192 206 225 191 72 60 334 81 93 5 35 166 359 136 203 25 112 139 251 269 283 359 139 217 215 352 281 114 114 98 96
312 311 318 176 130 36 48 81 227 290 303 354 124 151 235 208 119 104 98 52 40 26 87 23 335 332 341 288 91 313 35 250 107 13 74 324 30 71 254 290 52 82 103 115 106
320 329 37 172 67 80 67 242 258 313 359 29 55 358 171 186 117 97 65 336 19 31 95 333 7 17 312 46 20 85 274 27 15 65 24 338 162 242 177 265 41 58 81 108 114
320 336 139 68 43 199 185 245 280 347 32 53 23 330 309 206 93 77 37 356 15 1 63 32 73 304 32 15 311 6 35 56 108 119 151 177 317 284 189 243 85 64 48 74 85
303 336 167 230 298 248 221 225 314 302 15 337 52 21 12 76 58 87 82 55 31 349 53 15 133 308 240 245 89 114 117 109 110 283 158 127 297 317 56 41 53 55 67 75 70
292 281 189 208 203 295 290 283 268 4 357 342 13 60 33 115 90 117 96 40 56 57 61 349 14 18 353 349 9 32 341 119 111 81 204 112 213 21 79 52 67 75 69 56 42
280 325 205 212 235 215 309 289 309 356 351 54 33 67 56 45 72 140 126 96 78 78 59 77 75 134 169 238 249 325 325 12 107 95 110 45 101 5 11 42 58 61 49 37 25
242 256 262 245 261 214 354 279 309 330 353 33 11 48 70 56 54 52 62 103 47 34 40 84 54 14 254 277 352 17 72 67 63 42 89 118 93 24 5 81 62 50 33 22 15
211 304 337 299 294 172 178 273 328 291 66 359 68 56 79 82 111 82 110 72 105 29 49 8 347 29 316 30 61 45 31 58 48 75 100 107 63 1 79 81 52 35 22 16 8
213 287 261 299 328 105 220 225 274 353 24 43 121 85 90 136 109 105 102 97 112 124 86 74 77 44 296 337 29 37 350 85 71 40 93 68 8 11 38 71 52 24 9 355 347